Location: Blackeye Canyon
(38.9841°N, 122.6011°W)
Time: 01:26:25
(UTC+00:00)

Daily predictions for brighter satellites

Satellite Brightness Start Highest point End
(mag) Time Altitude Azimuth Time Altitude Azimuth Time Altitude Azimuth
H-2A R/B 2.3 03:47:54 10° S 03:52:50 73° WSW 03:57:56 10° NNW
STARLINK-1161 3.8 03:50:12 10° NW 03:54:20 72° SW 03:58:26 10° SE
Meteor 1-27 Rocket 4.0 03:48:24 10° S 03:54:20 84° W 04:00:13 10° N
STARLINK-1204 4.2 03:50:41 10° SSW 03:54:26 34° SE 03:58:12 10° ENE
CZ-2C R/B 3.6 03:50:55 10° S 03:56:10 69° WSW 04:01:45 10° NNW
STARLINK-1160 3.9 03:55:10 10° NW 03:59:18 65° SW 04:03:22 10° SE
STARLINK-1238 4.1 03:55:32 10° SSW 03:59:21 38° SE 04:03:12 10° ENE
Cosmos 405 Rocket 4.2 03:55:58 10° NNW 03:59:46 40° W 04:03:29 10° SSW
Cosmos 389 Rocket 3.3 04:00:59 10° SSE 04:04:01 30° E 04:07:04 10° NNE
STARLINK-1170 4.0 04:00:11 10° NW 04:04:16 58° SW 04:08:19 10° SE
STARLINK-1201 4.0 04:00:25 10° SSW 04:04:19 42° SE 04:08:15 10° ENE
BREEZE M DEB (TANK) 4.3 03:59:25 10° NW 04:04:20 85° NE 04:22:37 11° SE
Cosmos 1607 4.2 03:57:58 10° NNW 04:04:21 66° ENE 04:10:44 10° SE
NOSS 2-3 (D) 4.3 04:01:52 10° S 04:05:31 30° ESE 04:09:29 10° NE
Cosmos 1908 Rocket 4.3 04:03:28 10° N 04:07:33 35° ENE 04:11:37 10° SE
Cosmos 1513 Rocket 4.5 04:01:44 10° N 04:07:49 73° E 04:13:56 10° SSE
MOS 1 4.5 04:02:23 10° SSE 04:08:05 81° WSW 04:13:50 10° NNW
STARLINK-1150 4.2 04:05:12 10° WNW 04:09:14 52° SW 04:13:15 10° SSE
STARLINK-1206 3.8 04:05:19 10° SSW 04:09:17 47° SE 04:13:16 10° ENE
STARLINK-1151 4.3 04:10:13 10° WNW 04:14:12 47° SW 04:18:09 10° SSE
STARLINK-1205 3.7 04:10:14 10° SSW 04:14:14 52° SE 04:18:16 10° ENE
Resurs 1-3 3.8 04:11:02 10° SSE 04:15:18 56° ENE 04:19:37 10° N
Okean 1 3.9 04:11:38 10° SSE 04:15:24 39° E 04:19:12 10° NNE
USA 229 DEB 3.6 04:09:14 10° SSW 04:15:41 85° ESE 04:22:30 10° NE
USA 229 3.6 04:09:21 10° SSW 04:15:48 85° ESE 04:22:36 10° NE
FREGAT/IRIS 4.2 04:15:06 10° SSW 04:17:30 29° W 04:19:54 10° NNW
Cosmos 2251 Rocket 3.7 04:13:06 10° NNW 04:18:20 77° WSW 04:23:33 10° SSE
DMSP B5D2-2 4.1 04:13:15 10° NNE 04:18:35 83° ESE 04:23:51 10° SSW
STARLINK-1133 4.5 04:15:14 10° WNW 04:19:09 42° SW 04:22:56 11° SSE
STARLINK-1218 3.6 04:15:08 10° SW 04:19:11 58° SE 04:23:16 10° ENE
Cosmos 1464 Rocket 4.1 04:13:27 10° N 04:19:51 88° E 04:26:14 10° S
STARLINK-1155 4.4 04:17:31 10° NW 04:21:30 43° NE 04:25:00 13° ESE
Ariane Rocket 4.2 04:18:17 10° S 04:23:03 42° W 04:27:52 10° NNW
Cosmos 2242 Rocket 3.5 04:19:09 10° S 04:23:32 79° E 04:27:57 10° N
NOSS 3-1 (C) 3.4 04:18:23 10° SW 04:23:43 77° NW 04:29:52 10° NNE
STARLINK-1254 3.5 04:20:05 10° SW 04:24:09 65° SE 04:28:16 10° NE
NOSS 3-1 (A) 3.2 04:19:44 10° SSW 04:24:58 65° ESE 04:30:58 10° NE
STARLINK-1166 4.3 04:22:28 10° NW 04:26:29 47° NE 04:29:47 14° ESE
STARLINK-1212 4.2 04:23:49 10° WSW 04:26:47 42° NW 04:29:46 10° NE
STARLINK-1105 4.3 04:24:17 10° WSW 04:27:15 42° NW 04:30:13 10° NE
Cosmos 2082 Rocket 4.4 04:25:54 10° NNE 04:27:19 11° NE 04:28:43 10° ENE
STARLINK-1247 4.3 04:25:12 10° WSW 04:28:10 41° NW 04:31:09 10° NE
STARLINK-1227 4.3 04:25:40 10° WSW 04:28:38 40° NW 04:31:35 10° NE
STARLINK-1231 3.5 04:25:02 10° SW 04:29:09 72° SE 04:33:17 10° NE
CZ-2C R/B 3.9 04:24:52 10° N 04:29:19 72° WNW 04:33:49 10° SSW
STARLINK-1226 4.4 04:26:32 10° WSW 04:29:29 40° NW 04:32:27 10° NE
Cosmos 1666 4.0 04:26:22 10° NNW 04:30:00 41° W 04:33:37 10° SSW
STARLINK-1215 4.4 04:27:30 10° WSW 04:30:26 39° NW 04:33:23 10° NE
STARLINK-1165 4.1 04:27:26 10° NW 04:31:29 51° NE 04:34:34 16° ESE
MetOp-A 4.3 04:27:07 10° S 04:32:28 77° WSW 04:37:50 10° NNW
Cosmos 1536 4.1 04:28:58 10° NNW 04:32:48 41° W 04:36:37 10° SSW
STARLINK-1232 3.5 04:30:00 10° SW 04:34:07 80° SE 04:38:16 10° NE
Cosmos 1833 Rocket 4.4 04:32:01 10° N 04:35:59 19° NE 04:39:38 11° E
NOSS 2-3 (C) 3.5 04:31:59 10° SSW 04:36:06 67° ESE 04:40:46 10° NE
STARLINK-1169 4.0 04:32:23 10° NW 04:36:28 56° NE 04:39:21 18° ESE
SEDSat Delta rocket 4.4 04:30:24 10° WSW 04:36:47 44° S 04:41:32 17° ESE
Cosmos 2056 Rocket 3.6 04:32:49 10° S 04:37:44 50° ESE 04:42:40 10° NNE
STARLINK-1208 3.5 04:34:56 10° SW 04:39:04 87° SSE 04:43:14 10° NE
STARLINK-1178 3.9 04:37:20 10° NW 04:41:27 62° NE 04:44:08 20° ESE
Cosmos 44 Rocket 3.3 04:37:34 10° NNW 04:42:29 89° SW 04:46:07 19° SSE
CZ-2C R/B 3.2 04:37:14 10° N 04:42:47 66° WNW 04:48:20 10° SSW
H-2A R/B 3.5 04:40:40 10° SW 04:42:56 16° S 04:44:25 15° SSE
Cosmos 1515 3.9 04:40:17 16° SSE 04:43:09 49° E 04:46:51 10° NNE
STARLINK-1271 3.6 04:39:56 10° SW 04:44:04 85° NW 04:48:13 10° NE
BREEZE M DEB (TANK) 3.7 04:34:08 10° SW 04:44:45 62° SSE 04:48:02 10° ENE
STARLINK-1120 3.7 04:42:18 10° NW 04:46:26 68° NE 04:48:55 23° ESE
CREW DRAGON DEMO-1 DEB 4.3 04:44:43 10° NW 04:47:31 30° NNE 04:49:11 18° E
STARLINK-1087 3.1 04:47:10 10° NNW 04:48:57 28° NE 04:49:07 28° NE
STARLINK-1154 3.7 04:44:55 10° SW 04:49:03 77° NW 04:53:12 10° NE
STARLINK-1157 3.3 04:48:05 10° NW 04:51:23 59° SW 04:52:50 29° SSE
STARLINK-1131 3.6 04:47:16 10° NW 04:51:24 74° NE 04:53:41 26° ESE
Tsikada Rocket 4.0 04:45:28 10° S 04:51:41 90° ESE 04:57:53 10° N
Okean 3 4.3 04:50:20 24° SE 04:52:03 32° E 04:55:55 10° NNE
STARLINK-1197 3.9 04:49:55 10° WSW 04:54:02 70° NW 04:58:10 10° NE
Terra 3.8 04:52:55 12° E 04:54:46 15° ENE 04:57:22 10° NNE
Lacrosse 5 4.2 04:52:40 10° NNW 04:55:52 17° NNE 04:59:04 10° ENE
STARLINK-1190 3.6 04:52:12 10° NW 04:56:22 82° NE 04:58:26 28° SE
Meteor 1-19 Rocket 4.1 04:51:05 10° S 04:56:36 80° E 05:02:20 10° NNE
Cosmos 2278 Rocket 2.4 04:52:52 10° S 04:58:18 49° ESE 05:03:45 10° NNE
STARLINK-1198 4.1 04:54:53 10° WSW 04:58:58 64° NW 05:03:06 10° NE
Meteor 1-4 Rocket 2.4 04:57:44 26° S 04:59:28 63° E 05:02:54 10° NNE
USA 245 3.6 04:59:10 30° SE 05:00:31 43° ENE 05:03:36 10° N
Okean 1-7 3.3 04:56:41 10° SSW 05:00:56 66° W 05:05:12 10° N
STARLINK-1129 3.5 04:57:13 10° NW 05:01:22 89° NE 05:03:15 32° SE
Hubble Space Telescope 2.4 04:59:26 10° SW 05:02:12 19° S 05:02:12 19° S
Cosmos 2221 Rocket 4.1 05:01:47 28° SE 05:03:38 42° E 05:07:55 10° NNE
STARLINK-1199 4.2 04:59:56 10° WSW 05:04:00 58° NW 05:08:06 10° NE
STARLINK-1134 3.5 05:02:13 10° NW 05:06:22 83° SW 05:08:03 35° SE
Meteor 1-18 Rocket 4.5 05:01:14 10° SSW 05:06:45 70° W 05:12:22 10° N
Cosmos 1452 Rocket 4.2 05:07:10 28° SE 05:08:44 33° E 05:13:26 10° NE
STARLINK-1210 4.4 05:04:56 10° WSW 05:08:59 53° NW 05:13:03 10° NE
Resurs 01 Rocket 2.3 05:07:05 16° S 05:10:31 51° W 05:14:52 10° NNW
STARLINK-1135 3.6 05:07:10 10° NW 05:11:18 75° SW 05:12:48 38° SE
Cosmos 371 Rocket 3.9 05:12:58 31° SE 05:13:57 35° ESE 05:18:21 10° NE
Cosmos 1420 Rocket 4.0 05:11:47 22° S 05:15:02 56° ESE 05:20:08 10° NNE
Cosmos 407 Rocket 3.5 05:10:38 10° NNW 05:16:00 82° WSW 05:18:55 28° SSE
ERBS 2.1 05:15:14 44° S 05:16:01 62° SE 05:19:18 10° NE
STARLINK-1141 3.7 05:12:11 10° NW 05:16:18 68° SW 05:17:36 40° SSE
Sich 1 Rocket 3.6 05:14:58 10° N 05:19:34 80° E 05:21:29 35° SSE
STARLINK-1140 3.8 05:17:09 10° NW 05:21:14 61° SW 05:22:22 42° SSE
Cosmos 1544 3.3 05:20:58 10° NNW 05:24:34 64° W 05:25:44 38° SSW
Intercosmos 24 4.0 05:22:17 10° N 05:25:47 44° E 05:26:00 43° E
STARLINK-1156 3.9 05:22:10 10° WNW 05:26:13 54° SW 05:27:10 43° S
SAR-Lupe-2 3.9 05:22:47 10° N 05:26:21 63° WNW 05:28:11 26° SSW
Cosmos 1782 Rocket 4.2 05:22:08 10° NNW 05:26:31 54° W 05:29:01 24° SSW
SL-4 R/B 3.9 05:25:24 10° NNE 05:26:34 12° NE 05:26:43 12° NE
SPOT 1/Viking Rocket 3.5 05:25:39 35° SSE 05:27:50 73° ENE 05:32:59 10° N
STARLINK-1203 3.9 05:30:06 46° ESE 05:30:06 46° ESE 05:33:34 10° ENE
SPOT 5 3.5 05:28:35 35° ESE 05:30:12 47° ENE 05:35:13 10° N
STARLINK-1148 4.0 05:27:10 10° WNW 05:31:10 49° SW 05:31:56 43° S
STARLINK-1143 4.4 05:32:32 35° E 05:32:32 35° E 05:35:14 10° ENE
Meteor 1-13 Rocket 4.2 05:28:56 33° SSE 05:31:24 63° E 05:36:59 10° NNE
Meteor 2-4 Rocket 3.6 05:29:06 19° SSW 05:33:00 80° W 05:38:22 10° N
Cosmos 724 4.3 05:27:46 10° NNW 05:33:42 81° WSW 05:36:16 36° SSE
COSMOS 2406 3.2 05:28:13 10° NNW 05:34:01 86° ENE 05:36:21 38° SSE
STARLINK-1158 4.2 05:32:12 10° WNW 05:36:08 44° SW 05:36:44 41° SSW
Okean 2 Rocket 3.0 05:31:42 10° N 05:36:09 73° E 05:37:06 52° SSE
STARLINK-1241 4.1 05:37:14 42° E 05:37:14 42° E 05:40:14 10° ENE
Cosmos 2142 Rocket 4.4 05:30:56 10° N 05:37:05 82° E 05:39:56 34° SSE
Cosmos 1190 Rocket 4.3 05:33:07 10° NNW 05:38:16 62° WSW 05:40:28 33° S
STARLINK-1088 4.5 05:34:28 10° NW 05:38:26 42° NE 05:39:34 34° ENE
STARLINK-1162 4.3 05:37:12 10° WNW 05:41:04 39° SW 05:41:29 38° SSW
STARLINK-1239 3.9 05:42:00 48° E 05:42:00 48° E 05:45:14 10° NE
STARLINK-1115 4.3 05:39:25 10° NW 05:43:25 45° NE 05:44:20 38° ENE
ISS -0.9 05:42:12 10° NNW 05:44:04 14° NNE 05:45:55 10° NE
Cosmos 1975 4.2 05:41:38 10° NNW 05:45:18 33° W 05:47:02 23° SW
STARLINK-1240 3.7 05:46:47 57° E 05:46:47 57° E 05:50:14 10° NE
Landsat 7 4.2 05:45:36 36° SSW 05:47:22 58° W 05:52:05 10° NNW
STARLINK-1076 4.2 05:44:23 10° NW 05:48:26 49° NE 05:49:08 44° ENE
Cosmos 1140 Rocket 3.9 05:43:49 10° NNW 05:48:53 54° WSW 05:50:48 35° SSW
GENESIS II 4.4 05:45:08 10° NNW 05:49:06 58° NE 05:49:16 57° ENE
Cosmos 2151 Rocket 3.5 05:44:44 10° N 05:49:15 69° E 05:49:50 61° SE
STARLINK-1216 3.6 05:51:32 66° E 05:51:32 66° E 05:55:13 10° NE
Okean 1 Rocket 4.1 05:48:50 10° NNE 05:52:48 32° ENE 05:52:48 32° ENE
STARLINK-1092 4.0 05:49:19 10° NW 05:53:24 54° NE 05:53:54 50° ENE
Cosmos 2297 4.2 05:54:46 40° ESE 05:54:48 40° ESE 06:00:05 10° NE
STARLINK-1237 3.5 05:56:17 78° ENE 05:56:17 78° ENE 06:00:13 10° NE
Nadezhda 4 Rocket 4.1 05:56:19 45° SE 05:57:48 56° E 06:03:46 10° NNE
STARLINK-1080 3.8 05:54:19 10° NW 05:58:26 60° NE 05:58:42 58° ENE
ATLAS 3B CENTAUR R/B 4.2 05:51:59 10° SW 05:57:22 21° SSW 05:57:22 21° SSW
Aureole 1 Rocket 4.4 05:55:57 10° NW 06:00:02 38° WSW 06:01:53 28° SSW
STARLINK-1202 3.5 06:01:04 87° NNW 06:01:04 87° NNW 06:05:12 10° NE
ERS-1 Rocket 3.0 06:00:25 51° S 06:01:39 74° WSW 06:06:41 10° NNW
Cosmos 304 Rocket 4.2 06:02:23 46° E 06:02:23 46° E 06:06:29 10° NNE
STARLINK-1090 3.7 05:59:16 10° NW 06:03:24 65° NE 06:03:29 65° NE
Cosmos 1954 Rocket 4.2 06:00:06 10° NNW 06:05:17 62° WSW 06:06:32 47° SSW
Cosmos 332 Rocket 3.7 06:05:52 62° SSW 06:06:44 88° ESE 06:11:40 10° NNE
SeaSat 1 2.6 06:02:40 10° NE 06:07:08 51° E 06:07:08 51° E
STARLINK-1089 3.7 06:04:14 10° NW 06:08:15 71° NNE 06:08:15 71° NNE
Cosmos 1437 Rocket 2.9 06:09:11 67° NW 06:09:11 67° NW 06:12:38 10° N
Cosmos 2279 Rocket 4.2 06:03:00 10° NNW 06:09:12 67° W 06:11:34 38° SSW
STARLINK-1246 3.7 06:10:36 66° W 06:10:59 73° NW 06:15:08 10° NE
CARTOSAT-1 3.8 06:10:54 55° WSW 06:11:17 57° W 06:15:32 10° NNW
Cosmos 2082 Rocket 2.2 06:06:47 10° NNW 06:12:30 68° ENE 06:13:32 56° ESE
STARLINK-1107 3.7 06:09:12 10° NW 06:13:02 72° NNW 06:13:02 72° NNW
STARLINK-1224 3.9 06:15:21 56° W 06:15:59 66° NW 06:20:06 10° NE
STARLINK-1066 3.8 06:14:12 10° NW 06:17:50 67° NW 06:17:50 67° NW
Cosmos 1833 Rocket 2.8 06:14:49 10° NNW 06:20:22 63° WSW 06:21:20 53° SSW
STARLINK-1225 4.1 06:20:07 48° W 06:20:58 60° NW 06:25:04 10° NE
STARLINK-1081 4.0 06:19:10 10° NW 06:22:37 60° NW 06:22:37 60° NW
Cosmos 2369 Rocket 3.9 06:25:59 19° ENE 06:25:59 19° ENE 06:28:32 10° NE
STARLINK-1230 4.2 06:24:53 41° W 06:25:57 55° NW 06:30:01 10° NE
Cosmos 1331 Rocket 4.1 06:27:44 57° ENE 06:27:44 57° ENE 06:32:21 10° NNE
Meteor 1-15 Rocket 4.2 06:21:39 10° N 06:27:37 90° E 06:28:36 65° S
STARLINK-1070 4.2 06:24:08 10° NW 06:27:23 53° WNW 06:27:23 53° WNW
Cosmos 1066 Rocket 4.1 06:27:45 61° SSW 06:28:42 78° W 06:34:06 10° N
STARLINK-1243 4.4 06:29:38 36° W 06:30:56 50° NW 06:34:59 10° NE
Terra 2.0 06:31:48 58° WSW 06:31:59 58° W 06:36:42 10° NNW
STARLINK-1069 4.4 06:29:07 10° NW 06:32:09 46° WNW 06:32:09 46° WNW
Cosmos 1943 Rocket 3.2 06:35:00 32° ENE 06:35:00 32° ENE 06:38:48 10° NE
Cosmos 1092 Rocket 3.8 06:35:26 64° SE 06:36:08 71° E 06:42:14 10° NNE
Lacrosse 5 2.0 06:34:43 10° NW 06:39:45 62° NE 06:39:54 62° NE
Cosmos 2278 Rocket 4.3 06:38:08 10° WSW 06:42:38 24° NW 06:47:10 10° N
Cosmos 1461 3.8 06:44:38 45° NNE 06:44:38 45° NNE 06:47:45 10° NNE
ATLAS 2AS CENTAUR R/B 4.3 06:45:27 23° E 06:45:27 23° E 06:50:29 10° ENE
Cosmos 1627 Rocket 4.5 06:44:34 62° ESE 06:45:06 65° E 06:51:23 10° NNE
Thor Agena Rocket 3.5 06:45:50 10° NNE 06:51:03 83° ENE 06:51:03 83° ENE
Meteor 2-13 Rocket 4.5 06:53:00 60° E 06:53:09 60° E 06:59:13 10° NNE
Cosmos 2195 Rocket 4.4 06:57:32 72° S 06:58:16 89° WNW 07:04:37 10° N
SL-4 R/B 4.4 06:57:05 10° NW 06:57:33 13° NW 06:57:33 13° NW
Cosmos 1975 Rocket 3.8 07:06:32 52° N 07:06:32 52° N 07:09:58 10° N
Cosmos 1428 Rocket 4.3 07:08:41 78° SSE 07:09:07 86° E 07:15:27 10° N
ISS -0.8 07:18:06 10° NW 07:18:51 15° NW 07:18:51 15° NW
Cosmos 1553 Rocket 4.0 07:22:17 10° N 07:28:37 70° E 07:28:45 70° E
FALCON 9 R/B 4.5 07:32:38 20° E 07:32:38 20° E 07:36:39 10° E
Cosmos 2026 Rocket 4.2 07:28:33 57° WSW 07:29:12 60° W 07:35:27 10° N
USA 215 3.1 07:42:23 75° SE 07:43:02 89° SW 07:49:38 10° NW
Cosmos 1455 Rocket 4.4 07:39:03 10° NNW 07:41:49 35° NW 07:41:49 35° NW
Aureole 3 Rocket 4.1 07:41:23 10° NNW 07:47:06 77° W 07:47:33 73° SW
Cosmos 1025 Rocket 4.4 07:49:56 37° N 07:49:56 37° N 07:52:35 10° N
Cosmos 2082 Rocket 4.3 07:52:43 10° WNW 07:55:23 15° W 07:55:23 15° W
Cosmos 968 Rocket 4.0 07:53:35 10° NNW 07:57:58 56° NNE 07:57:58 56° NNE
Cosmos 2266 Rocket 3.9 07:58:58 73° ENE 07:58:58 73° ENE 08:04:51 10° N
NOSS 3-2 (C) 4.4 07:53:02 10° NNW 08:00:37 59° NE 08:04:01 37° ESE
ALOS 2 4.0 08:03:42 35° NW 08:03:42 35° NW 08:06:24 10° NNW
Cosmos 1726 4.4 08:01:48 10° N 08:03:22 23° N 08:03:22 23° N
NOSS 3-4 (A) 3.5 08:07:07 63° ENE 08:07:07 63° ENE 08:12:31 10° NE
NOSS 3-4 (C) 3.5 08:07:14 62° ENE 08:07:14 62° ENE 08:12:38 10° NE
Cosmos 2369 Rocket 2.7 08:07:45 50° WNW 08:07:57 50° WNW 08:13:27 10° NNE
Cosmos 1486 Rocket 4.4 08:04:05 10° NNW 08:08:23 58° NW 08:08:23 58° NW
Meteor 2-19 Rocket 4.3 08:14:54 83° WNW 08:14:54 83° WNW 08:20:59 10° N
ATLAS 3B R/B 4.2 08:09:23 10° NNW 08:15:21 31° NE 08:21:15 11° ESE
Cosmos 2098 Rocket 4.2 08:16:44 66° ESE 08:17:03 66° E 08:24:14 10° NNE
Cosmos 1943 Rocket 3.5 08:16:28 28° WNW 08:17:30 30° WNW 08:22:22 10° N
CENTAUR R/B 3.4 08:11:16 10° NNW 08:19:27 67° NE 08:23:12 38° ESE
Cosmos 1953 4.2 08:15:49 10° N 08:17:51 29° NNW 08:17:51 29° NNW
Cosmos 883 Rocket 4.4 08:14:00 10° N 08:20:08 79° ENE 08:20:08 79° ENE
Lacrosse 5 4.3 08:18:40 10° WNW 08:19:05 12° WNW 08:19:05 12° WNW
Resurs 1-4 Rocket 4.4 08:22:17 10° ENE 08:24:23 12° E 08:24:30 12° E
Meteor 2-5 Rocket 4.3 08:25:08 45° ENE 08:25:08 45° ENE 08:29:57 10° NNE
ATLAS 2AS CENTAUR R/B 3.1 08:32:51 56° WSW 08:34:44 75° NW 08:42:46 10° NNE
Cosmos 2315 Rocket 3.8 08:30:05 10° N 08:36:19 85° E 08:36:24 85° ESE
Meteor 2-15 4.5 08:38:30 10° NNW 08:44:26 68° W 08:44:26 68° W
SL-4 R/B 3.2 08:46:57 49° NNE 08:46:57 49° NNE 08:50:32 10° NE
NOSS 3-2 (A) 4.2 08:38:51 10° NW 08:46:28 56° WSW 08:46:57 56° SW
COSMOS 2455 2.7 08:47:15 85° NW 08:47:15 85° NW 08:53:15 10° NNE
Nadezhda 2 Rocket 4.3 08:48:17 80° ESE 08:48:23 81° E 08:54:30 10° N
USA 238 DEB 4.2 08:46:52 10° NW 08:53:22 47° WSW 08:53:22 47° WSW
USA 238 4.2 08:46:57 10° NW 08:53:30 48° WSW 08:53:30 48° WSW
ATLAS CENTAUR R/B 2.6 08:57:43 42° NNE 08:57:43 42° NNE 09:00:37 10° NNE
Meteor 2-16 Rocket 4.5 09:08:13 62° SE 09:08:48 66° E 09:14:53 10° NNE
RESURS DK-1 3.4 09:18:40 44° NNE 09:18:40 44° NNE 09:21:35 10° NNE
Cosmos 2297 Rocket 4.3 09:14:36 10° N 09:19:00 23° NE 09:23:23 10° ESE
Cosmos 1777 Rocket 3.9 09:17:45 10° NNW 09:22:56 83° NE 09:22:56 83° NE
Cosmos 1356 Rocket 4.4 09:22:46 10° N 09:26:27 42° ENE 09:26:27 42° ENE
Nadezhda 1 Rocket 4.3 09:21:03 10° N 09:27:09 62° E 09:28:50 46° SE
CZ-4C R/B 4.2 09:29:19 48° ENE 09:29:19 48° ENE 09:33:18 10° N
Helios 1B rocket 4.4 09:28:23 10° NNW 09:30:47 20° NW 09:30:47 20° NW
SL-19 R/B 4.3 09:29:48 10° N 09:35:09 60° WNW 09:35:35 58° W
Cosmos 1867 4.0 09:35:28 10° NW 09:39:46 47° WNW 09:39:46 47° WNW
DELTA 2 DEB (DPAF) 4.3 09:42:29 64° NW 09:42:29 64° NW 09:46:20 10° NNW
SL-16 R/B 2.7 09:41:27 39° SE 09:43:47 70° ENE 09:49:56 10° N
Timation 2 Rocket 3.8 09:41:09 10° NNW 09:47:29 86° WSW 09:49:02 53° SSE
Meteor 1-24 Rocket 4.4 09:52:57 36° W 09:53:09 36° WNW 09:58:04 10° N
Cosmos 1697 Rocket 4.0 09:51:53 26° SE 09:53:35 30° ESE 09:58:28 10° NE
Cosmos 2084 3.7 09:54:57 61° NW 09:54:57 61° NW 09:59:17 10° NNE
Cosmos 2227 Rocket 3.6 09:49:41 10° N 09:54:55 37° ENE 10:00:08 10° SE
CZ-2D R/B 1.9 09:50:52 10° NNE 09:56:09 89° ESE 09:56:52 68° S
Cosmos 1300 4.3 09:52:40 10° NNW 09:54:41 26° NW 09:54:41 26° NW
ADEOS II 3.3 09:52:10 10° NNE 09:56:54 33° E 09:58:49 26° SE
Cosmos 1745 Rocket 4.0 09:56:04 55° SW 09:57:12 65° W 10:03:19 10° N
BREEZE-M DEB (TANK) 3.9 09:56:17 10° WNW 10:00:19 82° SW 10:11:35 10° SE
Cosmos 1626 4.3 10:01:47 17° NW 10:01:47 17° NW 10:03:23 10° NNW
USA 81 4.0 09:59:40 59° SSE 10:00:41 79° E 10:05:58 10° N
SJ 16-02 2.8 09:57:08 10° N 10:01:13 35° ENE 10:03:51 19° ESE
STARLINK-1338 4.2 10:04:45 45° NE 10:04:45 45° NE 10:07:16 10° NE
Cosmos 921 Rocket 4.1 10:04:17 32° WNW 10:04:17 32° WNW 10:07:50 10° N
Resurs 1-4 Rocket 2.0 09:59:25 10° N 10:04:43 75° WNW 10:05:35 60° SW
ARIANE 5 R/B 4.3 10:01:55 10° NE 10:05:57 24° E 10:08:36 16° SE
ATLAS 3B R/B 2.7 09:59:40 10° NW 10:06:22 58° WSW 10:08:24 43° S
STARLINK-1367 4.5 10:07:49 35° NE 10:07:49 35° NE 10:09:49 10° NE
STARLINK-1371 4.0 10:08:44 50° NE 10:08:44 50° NE 10:11:27 10° NE
BREEZE-M R/B 3.8 10:08:47 35° WNW 10:09:49 41° NNW 10:12:51 10° NE
CENTAUR R/B 3.9 10:02:44 10° NW 10:09:53 32° WSW 10:10:19 31° WSW
STARLINK-1341 3.9 10:10:45 53° NNE 10:10:45 53° NNE 10:13:32 10° NE
Cosmos 1626 Rocket 4.3 10:12:16 38° WNW 10:12:16 38° WNW 10:16:00 10° N
STARLINK-1374 3.8 10:12:47 55° NNE 10:12:47 55° NNE 10:15:40 10° NE
Cosmos 468 Rocket 3.9 10:13:04 55° S 10:14:10 75° ESE 10:19:17 10° NNE
NPP 3.6 10:08:50 10° N 10:14:13 73° WNW 10:15:27 53° SW
STARLINK-1339 3.7 10:14:50 56° NNE 10:14:50 56° NNE 10:17:47 10° NE
STARLINK-1377 3.7 10:16:54 57° N 10:16:54 57° N 10:19:56 10° NE
Cosmos 1656 3.6 10:15:30 52° SSW 10:16:59 89° WNW 10:22:40 10° NNE
STARLINK-1353 3.7 10:17:34 54° N 10:17:34 54° N 10:20:28 10° NE
Cosmos 1328 4.3 10:17:08 46° SE 10:17:43 51° E 10:21:35 10° NNE
STARLINK-1375 3.7 10:19:32 56° N 10:19:32 56° N 10:22:35 10° NE
Meteor 1-21 Rocket 4.1 10:18:59 50° SSW 10:20:27 76° W 10:26:08 10° N
STARLINK-1350 3.7 10:21:44 54° N 10:21:44 54° N 10:24:48 10° NE
STARLINK-1352 3.6 10:25:20 54° NNW 10:25:20 54° NNW 10:28:42 10° NE
SL-4 R/B 4.4 10:22:30 11° WNW 10:26:06 23° NNW 10:29:54 10° NE
STARLINK-1368 3.7 10:27:29 51° NW 10:27:29 51° NW 10:30:56 10° NE
Cosmos 2369 4.1 10:25:38 34° S 10:27:54 57° ESE 10:33:25 10° NNE
STARLINK-1369 3.7 10:28:10 49° NNW 10:28:10 49° NNW 10:31:29 10° NE
Meteor 2-10 Rocket 3.4 10:24:14 10° N 10:29:32 84° W 10:31:30 39° S
STARLINK-1372 3.8 10:31:48 46° NW 10:32:00 46° NW 10:35:25 10° NE
UNK 4.3 10:34:02 39° W 10:34:02 39° W 10:38:19 10° NNW
STARLINK-1378 3.9 10:33:59 43° NW 10:34:18 44° NW 10:37:42 10° NE
STARLINK-1365 3.9 10:34:20 41° NW 10:34:37 42° NW 10:37:56 10° NE
STARLINK-1329 3.9 10:34:41 42° NW 10:35:01 44° NW 10:38:26 10° NE
STARLINK-1379 3.9 10:36:11 41° NW 10:36:34 42° NW 10:39:58 10° NE
Cosmos 1812 Rocket 4.0 10:32:50 10° NNW 10:37:03 42° W 10:37:15 42° W
STARLINK-1362 4.0 10:36:57 40° WNW 10:37:23 42° NW 10:40:46 10° NE
ATLAS CENTAUR R/B 2.8 10:34:09 10° NW 10:37:31 65° NE 10:45:43 10° SE
CZ-4C R/B 2.0 10:36:36 43° SSW 10:38:13 75° ESE 10:43:51 10° NE
Cosmos 1455 2.0 10:34:47 10° NNW 10:38:31 68° W 10:38:41 67° WSW
STARLINK-1373 4.1 10:39:12 37° WNW 10:39:44 40° NW 10:43:07 10° NE
STARLINK-1390 4.1 10:40:11 36° WNW 10:40:42 39° NW 10:44:00 10° NE
CRYOSAT 2 4.4 10:36:04 10° N 10:40:58 76° E 10:43:22 30° S
Cosmos 1825 Rocket 3.6 10:43:59 48° SW 10:44:54 61° W 10:49:12 10° N
AQUA 4.4 10:40:56 10° N 10:45:23 41° WNW 10:46:37 34° WSW
Cosmos 1980 Rocket 3.0 10:42:35 21° SSE 10:45:57 44° ESE 10:51:16 10° NE
Cosmos 1709 Rocket 4.3 10:45:06 33° SW 10:47:22 47° WNW 10:53:15 10° N
Cosmos 2219 3.3 10:42:52 10° NNW 10:48:24 55° WSW 10:51:18 27° S
CZ-4B R/B 4.4 10:48:24 10° N 10:53:05 36° WNW 10:54:54 27° WSW
STARLINK-1212 2.7 10:50:29 10° NW 10:53:36 87° SSW 10:56:41 10° SE
STARLINK-1105 2.7 10:50:57 10° NW 10:54:02 86° SW 10:57:07 10° SE
Alouette 2 Rocket 3.9 10:48:22 10° NNW 10:54:03 55° W 10:55:34 36° SSW
Cosmos 540 Rocket 3.6 10:51:32 28° S 10:54:15 71° ESE 10:59:22 10° NNE
Cosmos 1400 Rocket 3.8 10:50:45 10° N 10:54:45 47° ENE 10:58:44 10° SSE
STARLINK-1247 2.7 10:51:52 10° NW 10:55:00 84° SW 10:58:06 10° SE
STARLINK-1227 2.6 10:52:19 10° NW 10:55:25 83° SW 10:58:30 10° SE
STARLINK-1226 2.7 10:53:10 10° NW 10:56:17 81° SW 10:59:23 10° SE
IRS-1C 4.1 10:51:32 10° NNE 10:56:54 81° WNW 10:59:50 28° SSW
STARLINK-1215 2.7 10:54:07 10° NW 10:57:14 79° SW 11:00:20 10° SE
BREEZE-M DEB (TANK) 3.6 10:56:04 32° SSW 10:58:10 70° SE 11:11:50 10° ENE
STARLINK-1217 2.6 10:55:53 10° NW 10:59:00 76° SW 11:02:06 10° SE
GP-B 3.7 10:55:30 10° NNW 10:59:38 39° W 11:00:48 32° WSW
Cosmos 1703 3.8 10:58:57 36° WSW 10:59:41 40° W 11:03:26 10° N
Cosmos-2242 3.0 10:55:39 10° NNW 10:59:50 56° W 11:01:23 34° SSW
STARLINK-1229 2.7 10:56:49 10° NW 10:59:55 74° SW 11:03:01 10° SE
Cosmos 990 Rocket 3.9 10:55:04 10° NNW 11:00:17 65° WSW 11:04:22 16° S
STARLINK-1270 2.7 10:57:41 10° NW 11:00:47 72° SW 11:03:54 10° SE
STARLINK-1189 2.7 10:59:31 10° NW 11:02:37 68° SW 11:05:43 10° SE
Cosmos 2297 Rocket 2.3 10:57:52 10° NNW 11:03:21 52° WSW 11:07:33 17° S
STARLINK-1188 2.7 11:00:25 10° NW 11:03:31 67° SW 11:06:36 10° SE
STARLINK-1187 4.3 11:01:32 10° WNW 11:06:08 24° SSE 11:07:36 10° SE
STARLINK-1191 2.7 11:02:54 10° NW 11:05:57 62° SW 11:09:00 10° SE
STARLINK-1254 4.5 11:02:11 10° NW 11:06:15 52° NE 11:10:17 10° ESE
STARLINK-1221 2.7 11:03:45 10° NW 11:06:49 60° SW 11:09:52 10° SE
Cosmos 2082 3.7 11:01:46 10° NNW 11:07:27 83° ENE 11:13:04 10° SSE
STARLINK-1222 2.8 11:04:39 10° NW 11:07:44 59° SW 11:10:46 10° SE
Cosmos 841 Rocket 3.5 11:04:57 27° SSW 11:07:52 79° WNW 11:13:08 10° NNE
FALCON 9 R/B 4.5 10:59:44 10° W 11:07:59 68° S 11:43:59 10° ESE
STARLINK 1040 3.9 11:08:24 25° SE 11:08:34 26° SE 11:10:48 10° ENE
STARLINK-1214 2.8 11:05:34 10° WNW 11:08:37 57° SW 11:11:39 10° SE
Cosmos 2278 3.7 11:05:45 24° SSW 11:09:15 87° ESE 11:14:56 10° NNE
COBE Rocket 4.0 11:05:01 10° SSE 11:09:53 78° ENE 11:14:55 10° N
STARLINK-1231 4.3 11:07:10 10° NW 11:11:15 57° NE 11:15:20 10° ESE
SL-08 R/B 3.2 11:09:03 15° S 11:12:54 69° WSW 11:17:33 10° NNW
Meteor 1-11 4.2 11:09:42 23° SSW 11:13:21 70° W 11:18:58 10° N
IRS-1D 4.5 11:10:45 10° N 11:15:31 34° WNW 11:18:08 22° WSW
CZ-2C R/B 3.6 11:12:23 10° NNE 11:15:58 45° E 11:19:08 13° S
STARLINK-1232 4.1 11:12:08 10° NW 11:16:15 62° NE 11:20:21 10° ESE
USA 129 4.0 11:20:12 10° NE 11:20:52 14° ENE 11:20:52 14° ENE
STARLINK-1208 3.9 11:17:04 10° NW 11:21:13 69° NE 11:25:20 10° ESE
H-2A R/B 2.1 11:20:13 10° SSE 11:24:29 80° ENE 11:28:53 10° N
STARLINK-1271 3.8 11:22:04 10° NW 11:26:13 76° NE 11:30:20 10° SE
Cosmos 489 Rocket 4.4 11:22:28 17° SSW 11:27:27 85° WNW 11:33:43 10° NNE
SL-16 R/B 4.0 11:26:32 16° WSW 11:27:55 17° W 11:31:42 10° NW
Cosmos 2074 Rocket 4.2 11:23:59 17° SSW 11:28:48 58° W 11:35:02 10° N
Cosmos 2058 3.9 11:27:03 10° SSE 11:31:02 45° E 11:35:03 10° NNE
STARLINK-1154 3.7 11:27:02 10° NW 11:31:12 83° NE 11:35:20 10° SE
Lacrosse 4 Rocket 1.7 11:27:59 10° NNW 11:32:17 73° ENE 11:36:28 10° SSE
CZ-2D R/B 4.2 11:33:45 10° NW 11:35:23 11° WNW 11:37:01 10° WNW
STARLINK-1197 3.6 11:32:01 10° NW 11:36:10 89° SW 11:40:18 10° SE
ADEOS II 3.2 11:31:59 10° N 11:36:27 29° WNW 11:39:46 16° WSW
Cosmos 1697 Rocket 3.6 11:33:38 17° WSW 11:37:24 36° WNW 11:42:37 10° N
Cosmos 2227 Rocket 3.0 11:33:58 10° NW 11:38:49 30° WSW 11:43:38 10° SSW
CZ-4B R/B 4.0 11:36:41 10° ESE 11:39:02 20° ENE 11:41:22 10° NNE
SJ 16-02 2.8 11:36:25 10° NW 11:39:30 19° W 11:40:46 17° WSW
Cosmos 2184 Rocket 4.3 11:35:52 15° SSW 11:40:48 48° WNW 11:46:45 10° N
STARLINK-1198 3.5 11:36:58 10° NW 11:41:07 81° SW 11:45:15 10° SE
USA 234 3.3 11:35:19 10° NE 11:41:53 78° SE 11:47:52 13° SW
SL-24 DEB 4.3 11:37:47 10° N 11:42:26 84° E 11:47:02 10° S
Iridium 2 3.8 11:39:04 10° NNW 11:42:44 52° W 11:46:21 10° SSW
SL-16 R/B 3.4 11:38:40 10° S 11:43:51 39° ESE 11:49:04 10° NE
ARIANE 5 R/B 3.2 11:40:30 10° N 11:45:07 37° WNW 11:48:56 14° SW
STARLINK-1199 3.5 11:41:59 10° NW 11:46:07 74° SW 11:50:14 10° SE
STARLINK-43 3.3 11:43:36 18° SW 11:46:15 82° NW 11:49:57 10° NE
ERS-2 2.9 11:46:41 12° SSW 11:49:34 31° W 11:52:53 10° NW
STARLINK-1210 3.5 11:46:58 10° NW 11:51:05 66° SW 11:55:11 10° SE
Cosmos 1842 Rocket 3.6 11:47:00 10° NNW 11:51:27 62° W 11:55:50 10° S
Spot 4 Rocket 4.5 11:46:56 10° N 11:51:50 45° WNW 11:56:30 11° SW
STARLINK-55 3.9 11:49:58 13° SSW 11:52:32 40° SE 11:55:34 10° ENE
Cosmos 1825 4.3 11:49:58 10° SSE 11:53:07 26° E 11:56:18 10° NNE
